Time,TemperatureF,DewpointF,PressureIn,WindDirection,WindDirectionDegrees,WindSpeedMPH,WindSpeedGustMPH,Humidity,HourlyPrecipIn,Conditions,Clouds,dailyrainin,SoftwareType,DateUTC
2013-02-14 00:00:00,50.3,45.7,29.81,West,279,3.0,13.0,84,0.00,,SKC,0.34,VWS V13.00,2013-02-14 05:00:00,
2013-02-14 00:05:00,50.2,45.6,29.82,NW,308,5.0,14.0,84,0.00,,SKC,0.00,VWS V13.00,2013-02-14 05:05:00,
2013-02-14 00:10:00,50.1,45.5,29.81,WNW,288,7.0,13.0,84,0.00,,SKC,0.00,VWS V13.00,2013-02-14 05:10:00,
2013-02-14 00:15:00,50.1,45.5,29.81,WSW,245,4.0,9.0,84,0.00,,SKC,0.00,VWS V13.00,2013-02-14 05:15:00,
2013-02-14 00:20:00,50.0,45.4,29.82,West,264,1.0,11.0,84,0.00,,SKC,0.00,VWS V13.00,2013-02-14 05:20:00,
2013-02-14 00:25:00,50.0,45.4,29.82,WSW,252,5.0,11.0,84,0.00,,SKC,0.00,VWS V13.00,2013-02-14 05:25:00,
2013-02-14 00:30:00,50.0,45.4,29.82,NW,311,6.0,11.0,84,0.00,,SKC,0.00,VWS V13.00,2013-02-14 05:30:00,
2013-02-14 00:35:00,50.1,45.5,29.82,WNW,284,2.0,11.0,84,0.00,,SKC,0.00,VWS V13.00,2013-02-14 05:35:00,
2013-02-14 00:40:00,50.0,45.4,29.82,WNW,292,5.0,13.0,84,0.00,,SKC,0.00,VWS V13.00,2013-02-14 05:40:00,
2013-02-14 00:45:00,49.9,45.3,29.82,West,271,5.0,11.0,84,0.00,,SKC,0.00,VWS V13.00,2013-02-14 05:45:00,
2013-02-14 00:50:00,49.8,45.2,29.82,WNW,294,1.0,12.0,84,0.00,,SKC,0.00,VWS V13.00,2013-02-14 05:50:00,
2013-02-14 00:55:00,49.7,45.1,29.82,West,271,3.0,10.0,84,0.00,,SKC,0.00,VWS V13.00,2013-02-14 05:55:00,
2013-02-14 01:00:00,49.7,45.1,29.82,West,280,2.0,10.0,84,0.00,,SKC,0.00,VWS V13.00,2013-02-14 06:00:00,
2013-02-14 01:05:00,49.6,45.0,29.82,WNW,296,6.0,11.0,84,0.00,,SKC,0.00,VWS V13.00,2013-02-14 06:05:00,
2013-02-14 01:10:00,49.5,44.9,29.82,NW,304,6.0,10.0,84,0.00,,SKC,0.00,VWS V13.00,2013-02-14 06:10:00,
2013-02-14 01:15:00,49.4,44.8,29.81,West,276,6.0,11.0,84,0.00,,SKC,0.00,VWS V13.00,2013-02-14 06:15:00,
2013-02-14 01:20:00,49.2,44.6,29.82,WNW,292,4.0,12.0,84,0.00,,SKC,0.00,VWS V13.00,2013-02-14 06:20:00,
2013-02-14 01:25:00,49.2,44.6,29.82,WNW,288,0.0,8.0,84,0.00,,SKC,0.00,VWS V13.00,2013-02-14 06:25:00,
2013-02-14 01:30:00,49.2,44.6,29.82,NW,311,2.0,11.0,84,0.00,,SKC,0.00,VWS V13.00,2013-02-14 06:30:00,
2013-02-14 01:35:00,49.1,44.5,29.82,WNW,292,2.0,10.0,84,0.00,,SKC,0.00,VWS V13.00,2013-02-14 06:35:00,
2013-02-14 01:40:00,49.0,44.4,29.83,NNW,336,7.0,10.0,84,0.00,,SKC,0.00,VWS V13.00,2013-02-14 06:40:00,
2013-02-14 01:45:00,48.9,44.3,29.83,NNW,331,6.0,13.0,84,0.00,,SKC,0.00,VWS V13.00,2013-02-14 06:45:00,
2013-02-14 01:50:00,48.8,44.2,29.81,WNW,286,3.0,11.0,84,0.00,,SKC,0.00,VWS V13.00,2013-02-14 06:50:00,
2013-02-14 01:55:00,48.7,44.1,29.82,WNW,302,9.0,16.0,84,0.00,,SKC,0.00,VWS V13.00,2013-02-14 06:55:00,
2013-02-14 02:00:00,48.6,44.0,29.83,West,259,6.0,13.0,84,0.00,,SKC,0.00,VWS V13.00,2013-02-14 07:00:00,
2013-02-14 02:05:00,48.6,44.0,29.83,NW,321,10.0,14.0,84,0.00,,SKC,0.00,VWS V13.00,2013-02-14 07:05:00,
2013-02-14 02:10:00,48.5,43.9,29.83,North,355,2.0,13.0,84,0.00,,SKC,0.00,VWS V13.00,2013-02-14 07:10:00,
2013-02-14 02:15:00,48.4,43.8,29.84,NW,318,8.0,15.0,84,0.00,,SKC,0.00,VWS V13.00,2013-02-14 07:15:00,
2013-02-14 02:20:00,48.3,43.7,29.84,NNW,338,11.0,14.0,84,0.00,,SKC,0.00,VWS V13.00,2013-02-14 07:20:00,
2013-02-14 02:25:00,48.2,43.6,29.84,NE,55,7.0,15.0,84,0.00,,SKC,0.00,VWS V13.00,2013-02-14 07:25:00,
2013-02-14 02:30:00,48.1,43.5,29.84,WNW,300,8.0,14.0,84,0.00,,SKC,0.00,VWS V13.00,2013-02-14 07:30:00,
2013-02-14 02:35:00,47.9,43.3,29.84,WNW,298,4.0,17.0,84,0.00,,SKC,0.00,VWS V13.00,2013-02-14 07:35:00,
2013-02-14 02:40:00,47.6,43.0,29.84,NW,320,11.0,16.0,84,0.00,,SKC,0.00,VWS V13.00,2013-02-14 07:40:00,
2013-02-14 02:45:00,47.4,42.8,29.85,NNW,331,10.0,12.0,84,0.00,,SKC,0.00,VWS V13.00,2013-02-14 07:45:00,
2013-02-14 02:50:00,47.2,42.6,29.85,NW,317,9.0,11.0,84,0.00,,SKC,0.00,VWS V13.00,2013-02-14 07:50:00,
2013-02-14 02:55:00,47.1,42.5,29.85,NNE,13,1.0,7.0,84,0.00,,SKC,0.00,VWS V13.00,2013-02-14 07:55:00,
2013-02-14 03:00:00,47.0,42.4,29.86,NW,319,6.0,9.0,84,0.00,,SKC,0.00,VWS V13.00,2013-02-14 08:00:00,
2013-02-14 03:05:00,46.8,42.2,29.86,NW,320,9.0,10.0,84,0.00,,SKC,0.00,VWS V13.00,2013-02-14 08:05:00,
2013-02-14 03:10:00,46.7,42.1,29.87,NNW,333,3.0,11.0,84,0.00,,SKC,0.00,VWS V13.00,2013-02-14 08:10:00,
2013-02-14 03:15:00,46.7,42.1,29.87,NW,308,8.0,9.0,84,0.00,,SKC,0.00,VWS V13.00,2013-02-14 08:15:00,
2013-02-14 03:20:00,46.5,41.9,29.88,NW,320,3.0,13.0,84,0.00,,SKC,0.00,VWS V13.00,2013-02-14 08:20:00,
2013-02-14 03:25:00,46.2,41.6,29.88,NW,319,5.0,9.0,84,0.00,,SKC,0.00,VWS V13.00,2013-02-14 08:25:00,
2013-02-14 03:30:00,46.0,41.4,29.88,NNW,333,4.0,12.0,84,0.00,,SKC,0.00,VWS V13.00,2013-02-14 08:30:00,
2013-02-14 03:35:00,45.8,41.2,29.89,NW,312,0.0,6.0,84,0.00,,SKC,0.00,VWS V13.00,2013-02-14 08:35:00,
2013-02-14 03:40:00,45.6,41.0,29.90,WNW,298,4.0,7.0,84,0.00,,SKC,0.00,VWS V13.00,2013-02-14 08:40:00,
2013-02-14 03:45:00,45.4,40.9,29.89,NW,310,2.0,5.0,84,0.00,,SKC,0.00,VWS V13.00,2013-02-14 08:45:00,
2013-02-14 03:50:00,45.1,40.6,29.90,WNW,294,4.0,7.0,84,0.00,,SKC,0.00,VWS V13.00,2013-02-14 08:50:00,
2013-02-14 03:55:00,44.9,40.4,29.90,NW,321,5.0,9.0,84,0.00,,SKC,0.00,VWS V13.00,2013-02-14 08:55:00,
2013-02-14 04:00:00,44.6,39.8,29.90,WNW,301,4.0,9.0,83,0.00,,SKC,0.00,VWS V13.00,2013-02-14 09:00:00,
2013-02-14 04:05:00,44.3,39.8,29.91,NW,313,3.0,8.0,84,0.00,,SKC,0.00,VWS V13.00,2013-02-14 09:05:00,
2013-02-14 04:10:00,44.1,39.6,29.91,NNW,329,6.0,8.0,84,0.00,,SKC,0.00,VWS V13.00,2013-02-14 09:10:00,
2013-02-14 04:15:00,43.9,39.1,29.91,WNW,295,5.0,7.0,83,0.00,,SKC,0.00,VWS V13.00,2013-02-14 09:15:00,
2013-02-14 04:20:00,43.7,38.9,29.92,NW,323,2.0,7.0,83,0.00,,SKC,0.00,VWS V13.00,2013-02-14 09:20:00,
2013-02-14 04:25:00,43.4,38.9,29.92,NNW,331,1.0,5.0,84,0.00,,SKC,0.00,VWS V13.00,2013-02-14 09:25:00,
2013-02-14 04:30:00,43.3,38.8,29.93,NW,316,0.0,8.0,84,0.00,,SKC,0.00,VWS V13.00,2013-02-14 09:30:00,
2013-02-14 04:35:00,43.1,38.3,29.93,NNW,329,1.0,5.0,83,0.00,,SKC,0.00,VWS V13.00,2013-02-14 09:35:00,
2013-02-14 04:40:00,42.9,38.1,29.93,NW,317,3.0,5.0,83,0.00,,SKC,0.00,VWS V13.00,2013-02-14 09:40:00,
2013-02-14 04:45:00,42.7,37.9,29.93,NW,323,4.0,6.0,83,0.00,,SKC,0.00,VWS V13.00,2013-02-14 09:45:00,
2013-02-14 04:50:00,42.5,37.7,29.94,NW,315,1.0,7.0,83,0.00,,SKC,0.00,VWS V13.00,2013-02-14 09:50:00,
2013-02-14 04:55:00,42.4,37.6,29.94,NW,314,0.0,5.0,83,0.00,,SKC,0.00,VWS V13.00,2013-02-14 09:55:00,
2013-02-14 05:00:00,42.2,37.4,29.95,NW,319,0.0,8.0,83,0.00,,SKC,0.00,VWS V13.00,2013-02-14 10:00:00,
2013-02-14 05:05:00,42.1,37.3,29.95,North,350,3.0,6.0,83,0.00,,SKC,0.00,VWS V13.00,2013-02-14 10:05:00,
2013-02-14 05:10:00,41.9,37.1,29.96,NW,314,0.0,6.0,83,0.00,,SKC,0.00,VWS V13.00,2013-02-14 10:10:00,
2013-02-14 05:15:00,41.8,37.0,29.97,NW,309,4.0,4.0,83,0.00,,SKC,0.00,VWS V13.00,2013-02-14 10:15:00,
2013-02-14 05:20:00,41.7,36.9,29.96,NW,317,2.0,6.0,83,0.00,,SKC,0.00,VWS V13.00,2013-02-14 10:20:00,
2013-02-14 05:25:00,41.5,36.7,29.95,NW,326,3.0,5.0,83,0.00,,SKC,0.00,VWS V13.00,2013-02-14 10:25:00,
2013-02-14 05:30:00,41.5,36.7,29.95,NNW,334,3.0,6.0,83,0.00,,SKC,0.00,VWS V13.00,2013-02-14 10:30:00,
2013-02-14 05:36:00,41.5,36.7,29.97,NW,315,0.0,5.0,83,0.00,,SKC,0.00,VWS V13.00,2013-02-14 10:36:00,
2013-02-14 05:41:00,41.4,36.6,29.96,NNW,334,3.0,6.0,83,0.00,,SKC,0.00,VWS V13.00,2013-02-14 10:41:00,
2013-02-14 05:46:00,41.4,36.6,29.96,NNW,338,0.0,5.0,83,0.00,,SKC,0.00,VWS V13.00,2013-02-14 10:46:00,
2013-02-14 05:51:00,41.3,36.5,29.96,NW,316,7.0,7.0,83,0.00,,SKC,0.00,VWS V13.00,2013-02-14 10:51:00,
2013-02-14 05:56:00,41.3,36.5,29.96,NW,315,0.0,8.0,83,0.00,,SKC,0.00,VWS V13.00,2013-02-14 10:56:00,
2013-02-14 06:01:00,41.3,36.5,29.96,North,355,2.0,7.0,83,0.00,,SKC,0.00,VWS V13.00,2013-02-14 11:01:00,
2013-02-14 06:06:00,41.2,36.4,29.96,NNW,344,5.0,6.0,83,0.00,,SKC,0.00,VWS V13.00,2013-02-14 11:06:00,
2013-02-14 06:11:00,41.1,36.3,29.96,NW,319,5.0,7.0,83,0.00,,SKC,0.00,VWS V13.00,2013-02-14 11:11:00,
2013-02-14 06:16:00,41.1,36.3,29.96,NW,308,1.0,7.0,83,0.00,,SKC,0.00,VWS V13.00,2013-02-14 11:16:00,
2013-02-14 06:21:00,41.0,36.2,29.97,NNW,334,5.0,7.0,83,0.00,,SKC,0.00,VWS V13.00,2013-02-14 11:21:00,
2013-02-14 06:26:00,40.9,36.1,29.97,NW,326,4.0,7.0,83,0.00,,SKC,0.00,VWS V13.00,2013-02-14 11:26:00,
2013-02-14 06:31:00,40.8,36.0,29.97,NW,315,3.0,7.0,83,0.00,,SKC,0.00,VWS V13.00,2013-02-14 11:31:00,
2013-02-14 06:36:00,40.7,36.0,29.97,NNW,327,4.0,8.0,83,0.00,,SKC,0.00,VWS V13.00,2013-02-14 11:36:00,
2013-02-14 06:41:00,40.6,35.8,29.96,NW,323,2.0,8.0,83,0.00,,SKC,0.00,VWS V13.00,2013-02-14 11:41:00,
2013-02-14 06:46:00,40.5,35.8,29.97,NNW,340,3.0,7.0,83,0.00,,SKC,0.00,VWS V13.00,2013-02-14 11:46:00,
2013-02-14 06:51:00,40.5,35.8,29.97,NNW,342,5.0,7.0,83,0.00,,SKC,0.00,VWS V13.00,2013-02-14 11:51:00,
2013-02-14 06:56:00,40.4,35.7,29.97,NW,316,6.0,8.0,83,0.00,,SKC,0.00,VWS V13.00,2013-02-14 11:56:00,
2013-02-14 07:01:00,40.4,35.7,29.98,North,355,2.0,9.0,83,0.00,,SKC,0.00,VWS V13.00,2013-02-14 12:01:00,
2013-02-14 07:06:00,40.4,35.7,29.98,NNW,341,6.0,8.0,83,0.00,,SKC,0.00,VWS V13.00,2013-02-14 12:06:00,
2013-02-14 07:11:00,40.4,35.7,29.98,NNE,12,1.0,6.0,83,0.00,,SKC,0.00,VWS V13.00,2013-02-14 12:11:00,
2013-02-14 07:16:00,40.3,35.6,29.98,NW,323,2.0,6.0,83,0.00,,SKC,0.00,VWS V13.00,2013-02-14 12:16:00,
2013-02-14 07:21:00,40.3,35.6,29.98,NNW,339,4.0,6.0,83,0.00,,SKC,0.00,VWS V13.00,2013-02-14 12:21:00,
2013-02-14 07:26:00,40.2,35.5,29.98,NNW,341,1.0,7.0,83,0.00,,SKC,0.00,VWS V13.00,2013-02-14 12:26:00,
2013-02-14 07:31:00,40.2,35.5,29.98,NW,323,4.0,7.0,83,0.00,,SKC,0.00,VWS V13.00,2013-02-14 12:31:00,
2013-02-14 07:36:00,40.2,35.5,29.99,North,360,5.0,5.0,83,0.00,,SKC,0.00,VWS V13.00,2013-02-14 12:36:00,
2013-02-14 07:41:00,40.3,35.6,29.98,NW,326,1.0,3.0,83,0.00,,SKC,0.00,VWS V13.00,2013-02-14 12:41:00,
2013-02-14 07:46:00,40.4,35.7,30.00,NNW,338,3.0,5.0,83,0.00,,SKC,0.00,VWS V13.00,2013-02-14 12:46:00,
2013-02-14 07:51:00,40.7,36.2,30.00,NW,316,5.0,8.0,84,0.00,,SKC,0.00,VWS V13.00,2013-02-14 12:51:00,
2013-02-14 07:56:00,41.0,36.2,30.00,North,355,1.0,7.0,83,0.00,,SKC,0.00,VWS V13.00,2013-02-14 12:56:00,
2013-02-14 08:01:00,41.3,36.5,30.00,North,5,3.0,7.0,83,0.00,,SKC,0.00,VWS V13.00,2013-02-14 13:01:00,
2013-02-14 08:06:00,41.7,36.9,30.01,North,355,6.0,8.0,83,0.00,,SKC,0.00,VWS V13.00,2013-02-14 13:06:00,
2013-02-14 08:11:00,42.0,37.2,30.01,North,9,5.0,8.0,83,0.00,,SKC,0.00,VWS V13.00,2013-02-14 13:11:00,
2013-02-14 08:16:00,42.3,37.5,30.03,North,5,5.0,11.0,83,0.00,,SKC,0.00,VWS V13.00,2013-02-14 13:16:00,
2013-02-14 08:21:00,42.4,37.6,30.03,NNW,335,0.0,7.0,83,0.00,,SKC,0.00,VWS V13.00,2013-02-14 13:21:00,
2013-02-14 08:26:00,42.8,38.0,30.02,NNE,18,4.0,9.0,83,0.00,,SKC,0.00,VWS V13.00,2013-02-14 13:26:00,
2013-02-14 08:31:00,43.1,38.3,30.03,NW,321,2.0,10.0,83,0.00,,SKC,0.00,VWS V13.00,2013-02-14 13:31:00,
2013-02-14 08:36:00,43.2,38.4,30.04,North,360,3.0,10.0,83,0.00,,SKC,0.00,VWS V13.00,2013-02-14 13:36:00,
2013-02-14 08:41:00,43.3,38.5,30.04,North,355,2.0,10.0,83,0.00,,SKC,0.00,VWS V13.00,2013-02-14 13:41:00,
2013-02-14 08:46:00,43.4,38.6,30.04,North,5,6.0,8.0,83,0.00,,SKC,0.00,VWS V13.00,2013-02-14 13:46:00,
2013-02-14 08:51:00,43.4,38.6,30.03,North,350,4.0,6.0,83,0.00,,SKC,0.00,VWS V13.00,2013-02-14 13:51:00,
2013-02-14 08:56:00,43.4,38.6,30.03,NNE,18,8.0,8.0,83,0.00,,SKC,0.00,VWS V13.00,2013-02-14 13:56:00,
2013-02-14 09:01:00,43.4,38.6,30.03,North,5,5.0,9.0,83,0.00,,SKC,0.00,VWS V13.00,2013-02-14 14:01:00,
2013-02-14 09:06:00,43.4,38.6,30.05,NNW,344,2.0,8.0,83,0.00,,SKC,0.00,VWS V13.00,2013-02-14 14:06:00,
2013-02-14 09:11:00,43.5,38.7,30.05,NNE,25,2.0,8.0,83,0.00,,SKC,0.00,VWS V13.00,2013-02-14 14:11:00,
2013-02-14 09:16:00,44.0,39.2,30.04,NW,315,7.0,9.0,83,0.00,,SKC,0.00,VWS V13.00,2013-02-14 14:16:00,
2013-02-14 09:21:00,44.4,39.6,30.04,NNW,340,3.0,8.0,83,0.00,,SKC,0.00,VWS V13.00,2013-02-14 14:21:00,
2013-02-14 09:26:00,44.9,40.1,30.04,NNW,336,3.0,10.0,83,0.00,,SKC,0.00,VWS V13.00,2013-02-14 14:26:00,
2013-02-14 09:31:00,45.2,40.3,30.04,North,5,4.0,9.0,83,0.00,,SKC,0.00,VWS V13.00,2013-02-14 14:31:00,
2013-02-14 09:36:00,45.3,40.5,30.03,NW,314,5.0,9.0,83,0.00,,SKC,0.00,VWS V13.00,2013-02-14 14:36:00,
2013-02-14 09:40:00,45.3,40.5,30.02,NNE,20,5.0,12.0,83,0.00,,SKC,0.00,VWS V13.00,2013-02-14 14:40:00,
2013-02-14 09:45:00,45.5,40.3,30.03,NNW,329,5.0,11.0,82,0.00,,SKC,0.00,VWS V13.00,2013-02-14 14:45:00,
2013-02-14 09:50:00,45.8,40.6,30.03,NNW,342,2.0,10.0,82,0.00,,SKC,0.00,VWS V13.00,2013-02-14 14:50:00,
2013-02-14 09:55:00,45.8,40.6,30.03,NE,38,9.0,15.0,82,0.00,,SKC,0.00,VWS V13.00,2013-02-14 14:55:00,
2013-02-14 10:00:00,45.5,40.3,30.04,NNE,13,4.0,14.0,82,0.00,,SKC,0.00,VWS V13.00,2013-02-14 15:00:00,
2013-02-14 10:05:00,45.7,40.5,30.04,NE,51,3.0,8.0,82,0.00,,SKC,0.00,VWS V13.00,2013-02-14 15:05:00,
2013-02-14 10:10:00,45.9,40.7,30.04,NE,36,4.0,10.0,82,0.00,,SKC,0.00,VWS V13.00,2013-02-14 15:10:00,
2013-02-14 10:15:00,46.1,40.9,30.05,NNE,26,5.0,12.0,82,0.00,,SKC,0.00,VWS V13.00,2013-02-14 15:15:00,
2013-02-14 10:20:00,46.4,41.2,30.04,NNE,13,8.0,10.0,82,0.00,,SKC,0.00,VWS V13.00,2013-02-14 15:20:00,
2013-02-14 10:25:00,46.5,41.3,30.04,NNE,24,6.0,13.0,82,0.00,,SKC,0.00,VWS V13.00,2013-02-14 15:25:00,
2013-02-14 10:30:00,46.7,41.2,30.05,NNE,15,3.0,7.0,81,0.00,,SKC,0.00,VWS V13.00,2013-02-14 15:30:00,
2013-02-14 10:35:00,46.8,41.3,30.05,NNE,17,6.0,10.0,81,0.00,,SKC,0.00,VWS V13.00,2013-02-14 15:35:00,
2013-02-14 10:40:00,47.3,42.1,30.06,NNE,17,10.0,10.0,82,0.00,,SKC,0.00,VWS V13.00,2013-02-14 15:40:00,
2013-02-14 10:45:00,47.9,42.4,30.06,NNW,329,5.0,15.0,81,0.00,,SKC,0.00,VWS V13.00,2013-02-14 15:45:00,
2013-02-14 10:51:00,47.8,42.3,30.05,NE,41,6.0,11.0,81,0.00,,SKC,0.00,VWS V13.00,2013-02-14 15:51:00,
2013-02-14 10:56:00,47.9,42.4,30.05,NNE,15,8.0,10.0,81,0.00,,SKC,0.00,VWS V13.00,2013-02-14 15:56:00,
2013-02-14 11:01:00,48.0,42.5,30.04,NE,38,0.0,10.0,81,0.00,,SKC,0.00,VWS V13.00,2013-02-14 16:01:00,
2013-02-14 11:06:00,48.2,42.7,30.05,NE,44,2.0,8.0,81,0.00,,SKC,0.00,VWS V13.00,2013-02-14 16:06:00,
2013-02-14 11:11:00,48.3,42.8,30.04,NNE,20,8.0,10.0,81,0.00,,SKC,0.00,VWS V13.00,2013-02-14 16:11:00,
2013-02-14 11:16:00,48.5,43.0,30.04,North,9,6.0,8.0,81,0.00,,SKC,0.00,VWS V13.00,2013-02-14 16:16:00,
2013-02-14 11:21:00,48.5,43.0,30.05,ENE,67,4.0,6.0,81,0.00,,SKC,0.00,VWS V13.00,2013-02-14 16:21:00,
2013-02-14 11:26:00,48.8,42.9,30.05,East,100,5.0,9.0,80,0.00,,SKC,0.00,VWS V13.00,2013-02-14 16:26:00,
2013-02-14 11:31:00,48.7,42.8,30.04,East,80,3.0,7.0,80,0.00,,SKC,0.00,VWS V13.00,2013-02-14 16:31:00,
2013-02-14 11:36:00,48.9,43.0,30.05,NNW,333,3.0,8.0,80,0.00,,SKC,0.00,VWS V13.00,2013-02-14 16:36:00,
2013-02-14 11:41:00,49.2,43.3,30.05,NNE,18,6.0,9.0,80,0.00,,SKC,0.00,VWS V13.00,2013-02-14 16:41:00,
2013-02-14 11:46:00,49.0,43.1,30.05,NE,56,4.0,7.0,80,0.00,,SKC,0.00,VWS V13.00,2013-02-14 16:46:00,
2013-02-14 11:51:00,49.0,43.1,30.05,NNE,24,4.0,6.0,80,0.00,,SKC,0.00,VWS V13.00,2013-02-14 16:51:00,
2013-02-14 11:56:00,49.1,43.2,30.05,ENE,59,5.0,8.0,80,0.00,,SKC,0.00,VWS V13.00,2013-02-14 16:56:00,
2013-02-14 12:01:00,49.1,43.2,30.05,NNE,12,5.0,8.0,80,0.00,,SKC,0.00,VWS V13.00,2013-02-14 17:01:00,
2013-02-14 12:06:00,49.1,43.2,30.05,North,5,2.0,5.0,80,0.00,,SKC,0.00,VWS V13.00,2013-02-14 17:06:00,
2013-02-14 12:11:00,49.2,43.3,30.05,NNE,15,3.0,7.0,80,0.00,,SKC,0.00,VWS V13.00,2013-02-14 17:11:00,
2013-02-14 12:16:00,49.2,43.3,30.05,NNE,17,4.0,7.0,80,0.00,,SKC,0.00,VWS V13.00,2013-02-14 17:16:00,
2013-02-14 12:21:00,49.2,43.3,30.05,ENE,71,0.0,5.0,80,0.00,,SKC,0.00,VWS V13.00,2013-02-14 17:21:00,
2013-02-14 12:26:00,49.3,43.4,30.04,North,5,6.0,6.0,80,0.00,,SKC,0.00,VWS V13.00,2013-02-14 17:26:00,
2013-02-14 12:31:00,49.5,43.6,30.04,ENE,57,4.0,7.0,80,0.00,,SKC,0.00,VWS V13.00,2013-02-14 17:31:00,
2013-02-14 12:35:00,49.5,43.3,30.04,NNW,336,2.0,7.0,79,0.00,,SKC,0.00,VWS V13.00,2013-02-14 17:35:00,
2013-02-14 12:40:00,49.6,43.4,30.04,North,355,0.0,6.0,79,0.00,,SKC,0.00,VWS V13.00,2013-02-14 17:40:00,
2013-02-14 12:45:00,49.6,43.4,30.05,NNE,27,0.0,5.0,79,0.00,,SKC,0.00,VWS V13.00,2013-02-14 17:45:00,
2013-02-14 12:50:00,49.7,43.5,30.04,North,355,4.0,6.0,79,0.00,,SKC,0.00,VWS V13.00,2013-02-14 17:50:00,
2013-02-14 12:55:00,49.7,43.5,30.04,North,360,3.0,7.0,79,0.00,,SKC,0.00,VWS V13.00,2013-02-14 17:55:00,
2013-02-14 13:00:00,49.6,43.4,30.04,NNE,30,3.0,8.0,79,0.00,,SKC,0.00,VWS V13.00,2013-02-14 18:00:00,
2013-02-14 13:06:00,49.6,43.4,30.03,North,5,3.0,5.0,79,0.00,,SKC,0.00,VWS V13.00,2013-02-14 18:06:00,
2013-02-14 13:11:00,49.9,43.7,30.03,NNW,331,1.0,7.0,79,0.00,,SKC,0.00,VWS V13.00,2013-02-14 18:11:00,
2013-02-14 13:16:00,49.9,43.7,30.03,NE,53,0.0,4.0,79,0.00,,SKC,0.00,VWS V13.00,2013-02-14 18:16:00,
2013-02-14 13:21:00,50.0,43.8,30.03,NNE,30,4.0,5.0,79,0.00,,SKC,0.00,VWS V13.00,2013-02-14 18:21:00,
2013-02-14 13:26:00,50.2,44.0,30.03,NE,55,1.0,4.0,79,0.00,,SKC,0.00,VWS V13.00,2013-02-14 18:26:00,
2013-02-14 13:31:00,50.3,44.0,30.03,North,5,6.0,6.0,79,0.00,,SKC,0.00,VWS V13.00,2013-02-14 18:31:00,
2013-02-14 13:36:00,50.1,43.8,30.04,NW,325,4.0,6.0,79,0.00,,SKC,0.00,VWS V13.00,2013-02-14 18:36:00,
2013-02-14 13:41:00,50.1,43.8,30.04,NNW,329,0.0,4.0,79,0.00,,SKC,0.00,VWS V13.00,2013-02-14 18:41:00,
2013-02-14 13:46:00,50.3,44.0,30.04,WNW,284,2.0,4.0,79,0.00,,SKC,0.00,VWS V13.00,2013-02-14 18:46:00,
2013-02-14 13:51:00,50.4,43.8,30.04,North,355,1.0,5.0,78,0.00,,SKC,0.00,VWS V13.00,2013-02-14 18:51:00,
2013-02-14 13:56:00,50.3,43.7,30.04,NNW,338,0.0,4.0,78,0.00,,SKC,0.00,VWS V13.00,2013-02-14 18:56:00,
2013-02-14 14:01:00,50.3,43.7,30.03,NE,45,0.0,3.0,78,0.00,,SKC,0.00,VWS V13.00,2013-02-14 19:01:00,
2013-02-14 14:06:00,50.3,43.7,30.02,NW,305,0.0,5.0,78,0.00,,SKC,0.00,VWS V13.00,2013-02-14 19:06:00,
2013-02-14 14:11:00,50.5,43.9,30.02,NNE,17,2.0,5.0,78,0.01,,SKC,0.01,VWS V13.00,2013-02-14 19:11:00,
2013-02-14 14:16:00,50.5,43.9,30.02,NNW,338,0.0,4.0,78,0.01,,SKC,0.01,VWS V13.00,2013-02-14 19:16:00,
2013-02-14 14:21:00,50.6,44.0,30.01,ENE,76,3.0,3.0,78,0.01,,SKC,0.01,VWS V13.00,2013-02-14 19:21:00,
2013-02-14 14:26:00,50.6,44.0,30.01,NE,44,1.0,5.0,78,0.01,,SKC,0.01,VWS V13.00,2013-02-14 19:26:00,
2013-02-14 14:31:00,50.7,44.1,30.01,North,355,2.0,7.0,78,0.01,,SKC,0.01,VWS V13.00,2013-02-14 19:31:00,
2013-02-14 14:36:00,50.7,44.1,30.01,North,355,4.0,7.0,78,0.01,,SKC,0.01,VWS V13.00,2013-02-14 19:36:00,
2013-02-14 14:41:00,50.6,44.0,30.01,NNE,18,3.0,6.0,78,0.01,,SKC,0.01,VWS V13.00,2013-02-14 19:41:00,
2013-02-14 14:46:00,50.7,44.1,30.02,NE,44,0.0,4.0,78,0.01,,SKC,0.01,VWS V13.00,2013-02-14 19:46:00,
2013-02-14 14:51:00,50.7,43.8,30.02,East,89,2.0,2.0,77,0.01,,SKC,0.01,VWS V13.00,2013-02-14 19:51:00,
2013-02-14 14:56:00,50.5,43.6,30.02,ESE,109,0.0,4.0,77,0.01,,SKC,0.01,VWS V13.00,2013-02-14 19:56:00,
2013-02-14 15:01:00,50.6,43.7,30.02,SE,132,5.0,5.0,77,0.01,,SKC,0.01,VWS V13.00,2013-02-14 20:01:00,
2013-02-14 15:06:00,50.6,43.7,30.02,SE,126,4.0,5.0,77,0.01,,SKC,0.01,VWS V13.00,2013-02-14 20:06:00,
2013-02-14 15:11:00,50.8,44.2,30.02,South,171,4.0,7.0,78,0.01,,SKC,0.01,VWS V13.00,2013-02-14 20:11:00,
2013-02-14 15:16:00,51.0,44.4,30.03,SSE,148,2.0,8.0,78,0.00,,SKC,0.01,VWS V13.00,2013-02-14 20:16:00,
2013-02-14 15:21:00,51.2,44.2,30.03,SE,141,2.0,9.0,77,0.00,,SKC,0.01,VWS V13.00,2013-02-14 20:21:00,
2013-02-14 15:26:00,51.3,44.3,30.03,SSE,167,7.0,10.0,77,0.00,,SKC,0.01,VWS V13.00,2013-02-14 20:26:00,
2013-02-14 15:31:00,51.2,44.2,30.03,SE,136,1.0,8.0,77,0.00,,SKC,0.01,VWS V13.00,2013-02-14 20:31:00,
2013-02-14 15:36:00,51.1,44.2,30.04,SE,145,5.0,7.0,77,0.00,,SKC,0.01,VWS V13.00,2013-02-14 20:36:00,
2013-02-14 15:41:00,51.1,44.2,30.04,SE,135,1.0,7.0,77,0.00,,SKC,0.01,VWS V13.00,2013-02-14 20:41:00,
2013-02-14 15:46:00,51.0,44.0,30.03,SE,132,2.0,7.0,77,0.00,,SKC,0.01,VWS V13.00,2013-02-14 20:46:00,
2013-02-14 15:51:00,50.9,44.0,30.03,SE,131,6.0,8.0,77,0.00,,SKC,0.01,VWS V13.00,2013-02-14 20:51:00,
2013-02-14 15:56:00,50.7,43.8,30.02,SE,143,5.0,8.0,77,0.00,,SKC,0.01,VWS V13.00,2013-02-14 20:56:00,
2013-02-14 16:01:00,50.4,43.5,30.02,ESE,118,7.0,8.0,77,0.00,,SKC,0.01,VWS V13.00,2013-02-14 21:01:00,
2013-02-14 16:06:00,50.1,43.2,30.02,East,98,6.0,8.0,77,0.00,,SKC,0.01,VWS V13.00,2013-02-14 21:06:00,
2013-02-14 16:11:00,49.9,43.0,30.01,SE,141,5.0,8.0,77,0.00,,SKC,0.01,VWS V13.00,2013-02-14 21:11:00,
2013-02-14 16:16:00,49.9,43.0,30.01,ESE,115,7.0,11.0,77,0.00,,SKC,0.01,VWS V13.00,2013-02-14 21:16:00,
2013-02-14 16:21:00,49.9,43.0,30.01,SE,134,5.0,9.0,77,0.00,,SKC,0.01,VWS V13.00,2013-02-14 21:21:00,
2013-02-14 16:26:00,49.6,42.7,30.02,SE,135,2.0,9.0,77,0.00,,SKC,0.01,VWS V13.00,2013-02-14 21:26:00,
2013-02-14 16:31:00,49.3,42.4,30.03,SE,130,4.0,8.0,77,0.00,,SKC,0.01,VWS V13.00,2013-02-14 21:31:00,
2013-02-14 16:36:00,49.1,42.2,30.03,ESE,110,1.0,8.0,77,0.00,,SKC,0.01,VWS V13.00,2013-02-14 21:36:00,
2013-02-14 16:41:00,48.9,42.0,30.03,SE,138,6.0,8.0,77,0.00,,SKC,0.01,VWS V13.00,2013-02-14 21:41:00,
2013-02-14 16:46:00,48.9,42.0,30.04,SSE,158,5.0,7.0,77,0.00,,SKC,0.01,VWS V13.00,2013-02-14 21:46:00,
2013-02-14 16:51:00,48.8,41.9,30.04,ESE,112,1.0,7.0,77,0.00,,SKC,0.01,VWS V13.00,2013-02-14 21:51:00,
2013-02-14 16:56:00,48.7,41.8,30.04,SE,138,4.0,7.0,77,0.00,,SKC,0.01,VWS V13.00,2013-02-14 21:56:00,
2013-02-14 17:01:00,48.6,41.7,30.04,SE,130,5.0,8.0,77,0.00,,SKC,0.01,VWS V13.00,2013-02-14 22:01:00,
2013-02-14 17:06:00,48.4,41.5,30.05,ESE,117,4.0,5.0,77,0.00,,SKC,0.01,VWS V13.00,2013-02-14 22:06:00,
2013-02-14 17:11:00,48.3,41.4,30.04,SSE,167,2.0,6.0,77,0.00,,SKC,0.01,VWS V13.00,2013-02-14 22:11:00,
2013-02-14 17:16:00,48.2,41.3,30.04,SE,124,1.0,4.0,77,0.00,,SKC,0.01,VWS V13.00,2013-02-14 22:16:00,
2013-02-14 17:21:00,48.0,41.2,30.04,SE,132,1.0,6.0,77,0.00,,SKC,0.01,VWS V13.00,2013-02-14 22:21:00,
2013-02-14 17:26:00,47.9,41.4,30.05,SE,126,0.0,5.0,78,0.00,,SKC,0.01,VWS V13.00,2013-02-14 22:26:00,
2013-02-14 17:31:00,47.8,41.3,30.05,SSE,164,0.0,6.0,78,0.00,,SKC,0.01,VWS V13.00,2013-02-14 22:31:00,
2013-02-14 17:36:00,47.7,41.2,30.05,ESE,119,1.0,4.0,78,0.00,,SKC,0.01,VWS V13.00,2013-02-14 22:36:00,
2013-02-14 17:41:00,47.5,41.0,30.05,SE,125,0.0,4.0,78,0.00,,SKC,0.01,VWS V13.00,2013-02-14 22:41:00,
2013-02-14 17:46:00,47.4,40.9,30.06,SE,125,0.0,1.0,78,0.00,,SKC,0.01,VWS V13.00,2013-02-14 22:46:00,
2013-02-14 17:51:00,47.2,40.7,30.06,SSE,151,0.0,5.0,78,0.00,,SKC,0.01,VWS V13.00,2013-02-14 22:51:00,
2013-02-14 17:56:00,47.1,40.6,30.05,South,169,0.0,6.0,78,0.00,,SKC,0.01,VWS V13.00,2013-02-14 22:56:00,
2013-02-14 18:01:00,47.0,40.5,30.06,SSE,154,0.0,5.0,78,0.00,,SKC,0.01,VWS V13.00,2013-02-14 23:01:00,
2013-02-14 18:06:00,46.9,40.4,30.05,SSE,158,1.0,2.0,78,0.00,,SKC,0.01,VWS V13.00,2013-02-14 23:06:00,
2013-02-14 18:11:00,46.7,40.2,30.05,SSE,158,0.0,0.0,78,0.00,,SKC,0.01,VWS V13.00,2013-02-14 23:11:00,
2013-02-14 18:16:00,46.5,40.0,30.05,SSE,148,0.0,4.0,78,0.00,,SKC,0.01,VWS V13.00,2013-02-14 23:16:00,
2013-02-14 18:21:00,46.4,39.9,30.05,SE,144,0.0,4.0,78,0.00,,SKC,0.01,VWS V13.00,2013-02-14 23:21:00,
2013-02-14 18:26:00,46.3,39.8,30.04,SE,144,0.0,0.0,78,0.00,,SKC,0.01,VWS V13.00,2013-02-14 23:26:00,
2013-02-14 18:31:00,46.1,39.6,30.05,SE,128,1.0,4.0,78,0.00,,SKC,0.01,VWS V13.00,2013-02-14 23:31:00,
2013-02-14 18:36:00,45.9,39.4,30.05,ESE,117,1.0,4.0,78,0.00,,SKC,0.01,VWS V13.00,2013-02-14 23:36:00,
2013-02-14 18:41:00,45.6,39.2,30.06,SE,130,1.0,7.0,78,0.00,,SKC,0.01,VWS V13.00,2013-02-14 23:41:00,
2013-02-14 18:46:00,45.6,39.2,30.06,ESE,123,4.0,6.0,78,0.00,,SKC,0.01,VWS V13.00,2013-02-14 23:46:00,
2013-02-14 18:51:00,45.8,39.3,30.06,SE,133,2.0,7.0,78,0.00,,SKC,0.01,VWS V13.00,2013-02-14 23:51:00,
2013-02-14 18:56:00,46.0,39.5,30.07,SE,144,0.0,7.0,78,0.00,,SKC,0.01,VWS V13.00,2013-02-14 23:56:00,
2013-02-14 19:01:00,46.2,39.7,30.07,SE,131,6.0,6.0,78,0.00,,SKC,0.01,VWS V13.00,2013-02-15 00:01:00,
2013-02-14 19:06:00,46.3,39.8,30.07,ESE,121,0.0,7.0,78,0.00,,SKC,0.01,VWS V13.00,2013-02-15 00:06:00,
2013-02-14 19:11:00,46.4,39.9,30.07,SE,134,2.0,4.0,78,0.00,,SKC,0.01,VWS V13.00,2013-02-15 00:11:00,
2013-02-14 19:16:00,46.4,39.9,30.07,SE,146,0.0,5.0,78,0.00,,SKC,0.01,VWS V13.00,2013-02-15 00:16:00,
2013-02-14 19:21:00,46.3,39.8,30.08,SE,142,4.0,4.0,78,0.00,,SKC,0.01,VWS V13.00,2013-02-15 00:21:00,
2013-02-14 19:26:00,46.2,39.7,30.08,SE,130,0.0,4.0,78,0.00,,SKC,0.01,VWS V13.00,2013-02-15 00:26:00,
2013-02-14 19:31:00,46.1,39.6,30.08,ESE,123,6.0,7.0,78,0.00,,SKC,0.01,VWS V13.00,2013-02-15 00:31:00,
2013-02-14 19:36:00,46.2,39.7,30.08,SE,132,4.0,7.0,78,0.00,,SKC,0.01,VWS V13.00,2013-02-15 00:36:00,
2013-02-14 19:41:00,46.5,40.0,30.07,ESE,117,2.0,8.0,78,0.00,,SKC,0.01,VWS V13.00,2013-02-15 00:41:00,
2013-02-14 19:46:00,46.6,40.1,30.07,SE,135,4.0,7.0,78,0.00,,SKC,0.01,VWS V13.00,2013-02-15 00:46:00,
2013-02-14 19:51:00,46.6,40.1,30.07,SE,133,1.0,5.0,78,0.00,,SKC,0.01,VWS V13.00,2013-02-15 00:51:00,
2013-02-14 19:56:00,46.6,40.1,30.07,ESE,123,4.0,6.0,78,0.00,,SKC,0.01,VWS V13.00,2013-02-15 00:56:00,
2013-02-14 20:01:00,46.5,40.0,30.07,ESE,115,0.0,5.0,78,0.00,,SKC,0.01,VWS V13.00,2013-02-15 01:01:00,
2013-02-14 20:06:00,46.4,39.9,30.06,ESE,112,1.0,7.0,78,0.00,,SKC,0.01,VWS V13.00,2013-02-15 01:06:00,
2013-02-14 20:11:00,46.2,39.7,30.07,ESE,123,4.0,5.0,78,0.00,,SKC,0.01,VWS V13.00,2013-02-15 01:11:00,
2013-02-14 20:16:00,46.2,39.7,30.08,ESE,111,4.0,8.0,78,0.00,,SKC,0.01,VWS V13.00,2013-02-15 01:16:00,
2013-02-14 20:21:00,46.3,39.8,30.08,SE,132,0.0,7.0,78,0.00,,SKC,0.01,VWS V13.00,2013-02-15 01:21:00,
2013-02-14 20:26:00,46.5,40.3,30.08,SSE,159,2.0,6.0,79,0.00,,SKC,0.01,VWS V13.00,2013-02-15 01:26:00,
2013-02-14 20:31:00,46.6,40.5,30.09,ESE,123,1.0,7.0,79,0.00,,SKC,0.01,VWS V13.00,2013-02-15 01:31:00,
2013-02-14 20:36:00,46.6,40.5,30.09,ESE,123,2.0,6.0,79,0.00,,SKC,0.01,VWS V13.00,2013-02-15 01:36:00,
2013-02-14 20:41:00,46.7,40.5,30.10,SE,136,6.0,9.0,79,0.00,,SKC,0.01,VWS V13.00,2013-02-15 01:41:00,
2013-02-14 20:46:00,46.9,40.4,30.10,ESE,113,5.0,8.0,78,0.00,,SKC,0.01,VWS V13.00,2013-02-15 01:46:00,
2013-02-14 20:51:00,47.0,40.5,30.09,ESE,115,5.0,7.0,78,0.00,,SKC,0.01,VWS V13.00,2013-02-15 01:51:00,
2013-02-14 20:56:00,47.1,40.6,30.09,SE,142,2.0,7.0,78,0.00,,SKC,0.01,VWS V13.00,2013-02-15 01:56:00,
2013-02-14 21:01:00,47.1,40.6,30.09,ESE,119,4.0,7.0,78,0.00,,SKC,0.01,VWS V13.00,2013-02-15 02:01:00,
2013-02-14 21:06:00,47.1,40.6,30.09,South,173,4.0,8.0,78,0.00,,SKC,0.01,VWS V13.00,2013-02-15 02:06:00,
2013-02-14 21:11:00,47.1,40.6,30.09,ESE,113,2.0,6.0,78,0.00,,SKC,0.01,VWS V13.00,2013-02-15 02:11:00,
2013-02-14 21:16:00,47.1,40.6,30.09,SE,128,1.0,4.0,78,0.00,,SKC,0.01,VWS V13.00,2013-02-15 02:16:00,
2013-02-14 21:21:00,47.0,40.5,30.10,SE,128,1.0,2.0,78,0.00,,SKC,0.01,VWS V13.00,2013-02-15 02:21:00,
2013-02-14 21:26:00,47.0,40.5,30.10,SE,146,0.0,5.0,78,0.00,,SKC,0.01,VWS V13.00,2013-02-15 02:26:00,
2013-02-14 21:31:00,46.9,40.4,30.10,SE,145,0.0,2.0,78,0.00,,SKC,0.01,VWS V13.00,2013-02-15 02:31:00,
2013-02-14 21:36:00,46.8,40.6,30.10,SSE,151,1.0,4.0,79,0.00,,SKC,0.01,VWS V13.00,2013-02-15 02:36:00,
2013-02-14 21:41:00,46.7,40.5,30.10,SE,132,0.0,5.0,79,0.00,,SKC,0.01,VWS V13.00,2013-02-15 02:41:00,
2013-02-14 21:46:00,46.5,40.3,30.10,SE,132,0.0,2.0,79,0.00,,SKC,0.01,VWS V13.00,2013-02-15 02:46:00,
2013-02-14 21:51:00,46.3,40.2,30.09,ESE,117,1.0,5.0,79,0.00,,SKC,0.01,VWS V13.00,2013-02-15 02:51:00,
2013-02-14 21:56:00,46.3,40.2,30.10,SE,134,4.0,5.0,79,0.00,,SKC,0.01,VWS V13.00,2013-02-15 02:56:00,
2013-02-14 22:01:00,46.1,40.0,30.11,SE,132,0.0,5.0,79,0.00,,SKC,0.01,VWS V13.00,2013-02-15 03:01:00,
2013-02-14 22:06:00,46.0,39.9,30.11,SE,126,2.0,2.0,79,0.00,,SKC,0.01,VWS V13.00,2013-02-15 03:06:00,
2013-02-14 22:11:00,45.8,39.7,30.10,SE,127,0.0,4.0,79,0.00,,SKC,0.01,VWS V13.00,2013-02-15 03:11:00,
2013-02-14 22:16:00,45.5,39.4,30.10,SE,126,0.0,2.0,79,0.00,,SKC,0.01,VWS V13.00,2013-02-15 03:16:00,
2013-02-14 22:21:00,45.3,39.2,30.09,ESE,111,2.0,5.0,79,0.00,,SKC,0.01,VWS V13.00,2013-02-15 03:21:00,
2013-02-14 22:26:00,45.1,39.0,30.08,ESE,111,0.0,4.0,79,0.00,,SKC,0.01,VWS V13.00,2013-02-15 03:26:00,
2013-02-14 22:31:00,45.0,38.9,30.08,ESE,111,0.0,1.0,79,0.00,,SKC,0.01,VWS V13.00,2013-02-15 03:31:00,
2013-02-14 22:36:00,44.7,38.6,30.08,ESE,111,0.0,0.0,79,0.00,,SKC,0.01,VWS V13.00,2013-02-15 03:36:00,
2013-02-14 22:41:00,44.4,38.3,30.08,ESE,111,0.0,1.0,79,0.00,,SKC,0.01,VWS V13.00,2013-02-15 03:41:00,
2013-02-14 22:46:00,44.1,38.0,30.07,ESE,111,0.0,0.0,79,0.00,,SKC,0.01,VWS V13.00,2013-02-15 03:46:00,
2013-02-14 22:51:00,43.9,37.8,30.07,ESE,111,0.0,0.0,79,0.00,,SKC,0.01,VWS V13.00,2013-02-15 03:51:00,
2013-02-14 22:56:00,43.6,37.5,30.07,ESE,111,0.0,0.0,79,0.00,,SKC,0.01,VWS V13.00,2013-02-15 03:56:00,
2013-02-14 23:01:00,43.4,37.3,30.07,ESE,111,0.0,0.0,79,0.00,,SKC,0.01,VWS V13.00,2013-02-15 04:01:00,
2013-02-14 23:06:00,43.1,37.0,30.06,ESE,111,1.0,1.0,79,0.00,,SKC,0.01,VWS V13.00,2013-02-15 04:06:00,
2013-02-14 23:11:00,42.9,36.8,30.06,ESE,111,0.0,1.0,79,0.00,,SKC,0.01,VWS V13.00,2013-02-15 04:11:00,
2013-02-14 23:16:00,42.7,36.7,30.06,ESE,111,0.0,2.0,79,0.00,,SKC,0.01,VWS V13.00,2013-02-15 04:16:00,
2013-02-14 23:21:00,42.5,36.8,30.07,ESE,111,0.0,0.0,80,0.00,,SKC,0.01,VWS V13.00,2013-02-15 04:21:00,
2013-02-14 23:26:00,42.3,36.6,30.07,ESE,111,0.0,0.0,80,0.00,,SKC,0.01,VWS V13.00,2013-02-15 04:26:00,
2013-02-14 23:31:00,42.2,36.5,30.07,ESE,109,0.0,2.0,80,0.00,,SKC,0.01,VWS V13.00,2013-02-15 04:31:00,
2013-02-14 23:36:00,42.0,36.3,30.07,ESE,109,0.0,0.0,80,0.00,,SKC,0.01,VWS V13.00,2013-02-15 04:36:00,
2013-02-14 23:41:00,41.9,36.2,30.07,ESE,109,0.0,2.0,80,0.00,,SKC,0.01,VWS V13.00,2013-02-15 04:41:00,
2013-02-14 23:46:00,41.8,36.1,30.07,ESE,109,0.0,0.0,80,0.00,,SKC,0.01,VWS V13.00,2013-02-15 04:46:00,
2013-02-14 23:51:00,41.7,36.0,30.06,ESE,109,2.0,4.0,80,0.00,,SKC,0.01,VWS V13.00,2013-02-15 04:51:00,
2013-02-14 23:56:00,41.7,36.0,30.06,ENE,58,0.0,4.0,80,0.00,,SKC,0.01,VWS V13.00,2013-02-15 04:56:00,